EW9135 Weather Reports


time (UTC)temp
C
wind
direction
speed
KPH
gust
KPH
rain 1hr
cm
rain 24hr
cm
rain mn
cm
humidity
%
barometer
mb
20260506073153 12 248 0.0 0.0 0.00 0.00 0.00 42 1025.6
20260506072649 12 265 0.0 0.0 0.00 0.00 0.00 42 1025.3
20260506072142 12 235 0.0 0.0 0.00 0.00 0.00 44 1025.3
20260506071637 12 245 0.0 0.0 0.00 0.00 0.00 45 1025.6
20260506071133 12 270 0.0 0.0 0.00 0.00 0.00 44 1025.6
20260506070626 12 275 0.0 0.0 0.00 0.00 0.00 45 1025.3
20260506070121 12 253 0.0 0.0 0.00 0.00 0.00 44 1025.3
20260506062038 13 258 0.0 0.0 0.00 0.00 0.00 43 1024.8
20260506061535 13 265 0.0 0.0 0.00 0.00 0.00 43 1025.3
20260506061529 13 293 0.0 0.0 0.00 0.00 0.00 43 1024.8
20260506060522 13 303 0.0 0.0 0.00 0.00 0.00 43 1024.8
20260506050926 15 248 0.0 0.0 0.00 0.00 0.00 39 1024.1
20260506050419 15 262 0.0 0.0 0.00 0.00 0.00 39 1024.1
20260506044905 15 274 0.0 0.0 0.00 0.00 0.00 38 1024.1
20260506044859 15 235 0.0 0.0 0.00 0.00 0.00 36 1023.8
20260506043854 15 243 0.0 0.0 0.00 0.00 0.00 36 1024.1
20260506043349 16 241 0.0 0.0 0.00 0.00 0.00 36 1024.1
20260506043344 16 271 0.0 0.0 0.00 0.00 0.00 36 1024.1
20260506042338 16 277 0.0 0.0 0.00 0.00 0.00 36 1023.8
20260506041831 16 271 0.0 0.0 0.00 0.00 0.00 34 1023.5
20260506041326 16 283 0.0 0.0 0.00 0.00 0.00 33 1023.5
20260506040823 16 231 0.0 0.0 0.00 0.00 0.00 33 1023.5
20260506040315 16 273 0.0 0.0 0.00 0.00 0.00 33 1023.5
20260506035810 16 237 0.0 0.0 0.00 0.00 0.00 32 1023.5
20260506035307 16 208 0.0 0.0 0.00 0.00 0.00 32 1023.5
20260506035301 16 234 0.0 0.0 0.00 0.00 0.00 32 1023.5
20260506034254 16 294 0.0 0.0 0.00 0.00 0.00 32 1023.5
20260506033750 16 150 0.0 0.0 0.00 0.00 0.00 32 1023.5
20260506033244 16 241 0.0 0.0 0.00 0.00 0.00 32 1023.5
20260506032738 16 210 0.0 0.0 0.00 0.00 0.00 32 1023.1
20260506032235 16 272 0.0 1.6 0.00 0.00 0.00 32 1023.1
20260506031729 16 198 0.0 0.0 0.00 0.00 0.00 32 1023.1
20260506031723 16 270 0.0 0.0 0.00 0.00 0.00 32 1023.1
20260506030719 16 246 0.0 0.0 0.00 0.00 0.00 32 1023.1
20260506030713 16 256 0.0 0.0 0.00 0.00 0.00 32 1023.1
20260506025706 16 164 0.0 0.0 0.00 0.00 0.00 32 1022.8
20260506025202 16 220 0.0 0.0 0.00 0.00 0.00 32 1023.1
20260506024656 16 225 0.0 0.0 0.00 0.00 0.00 32 1022.8
20260506024153 17 256 0.0 0.0 0.00 0.00 0.00 32 1022.8
20260506023647 17 186 0.0 0.0 0.00 0.00 0.00 31 1022.8
20260506023140 17 221 0.0 0.0 0.00 0.00 0.00 31 1022.8
20260506022635 17 248 0.0 0.0 0.00 0.00 0.00 31 1022.8
20260506022131 17 320 0.0 1.6 0.00 0.00 0.00 31 1022.8
20260506021624 17 0 0.0 1.6 0.00 0.00 0.00 31 1022.4
20260506021119 17 228 0.0 0.0 0.00 0.00 0.00 31 1022.4
20260506020615 17 258 0.0 0.0 0.00 0.00 0.00 31 1022.4
20260506020109 17 243 0.0 0.0 0.00 0.00 0.00 31 1022.4
20260506015604 17 242 0.0 0.0 0.00 0.00 0.00 30 1022.1
20260506015100 17 248 0.0 0.0 0.00 0.00 0.00 30 1022.1
20260506014553 17 251 0.0 0.0 0.00 0.00 0.00 30 1022.4
20260506014048 18 243 0.0 0.0 0.00 0.00 0.00 30 1022.4
20260506013543 18 251 0.0 0.0 0.00 0.00 0.00 32 1022.4
20260506013037 18 210 0.0 0.0 0.00 0.00 0.00 32 1022.4
20260506012532 18 214 0.0 0.0 0.00 0.00 0.00 32 1022.4
20260506012029 18 196 0.0 0.0 0.00 0.00 0.00 31 1022.4
20260506011521 19 220 0.0 0.0 0.00 0.00 0.00 32 1022.4
20260506011015 19 216 0.0 0.0 0.00 0.00 0.00 31 1022.1
20260506010512 19 213 0.0 0.0 0.00 0.00 0.00 31 1022.4
20260506010505 19 244 0.0 0.0 0.00 0.00 0.00 31 1022.4
20260506005459 19 227 0.0 0.0 0.00 0.00 0.00 31 1022.1
20260506004955 19 229 0.0 0.0 0.00 0.00 0.00 32 1022.4
20260506004449 19 215 0.0 0.0 0.00 0.00 0.00 31 1022.1
20260506003944 19 247 0.0 0.0 0.00 0.00 0.00 30 1022.1
20260506003440 18 253 0.0 0.0 0.00 0.00 0.00 30 1022.1
20260506002932 18 242 0.0 0.0 0.00 0.00 0.00 31 1022.1
20260506002428 18 217 0.0 1.6 0.00 0.00 0.00 31 1022.1
20260506001924 18 225 0.0 1.6 0.00 0.00 0.00 33 1022.1
20260506001417 18 276 0.0 1.6 0.00 0.00 0.00 32 1021.8
20260506000912 18 244 0.0 0.0 0.00 0.00 0.00 32 1022.1
20260506000409 18 187 0.0 0.0 0.00 0.00 0.00 33 1022.1
20260505235902 19 156 0.0 0.0 0.00 0.00 0.00 31 1022.1
20260505235356 19 247 0.0 0.0 0.00 0.00 0.00 31 1022.1
20260505234852 19 273 0.0 0.0 0.00 0.00 0.00 31 1022.1
20260505234346 19 193 0.0 0.0 0.00 0.00 0.00 31 1022.1
20260505234341 19 253 0.0 0.0 0.00 0.00 0.00 31 1022.1
20260505233336 19 258 0.0 0.0 0.00 0.00 0.00 31 1022.1
20260505232830 19 242 0.0 0.0 0.00 0.00 0.00 30 1022.1
20260505232325 20 349 0.0 0.0 0.00 0.00 0.00 30 1022.1
20260505231820 19 250 0.0 0.0 0.00 0.00 0.00 31 1022.1
20260505231314 19 287 0.0 0.0 0.00 0.00 0.00 29 1021.8
20260505230809 19 231 0.0 0.0 0.00 0.00 0.00 31 1022.1
20260505230305 19 172 0.0 0.0 0.00 0.00 0.00 31 1022.1
20260505230259 19 255 0.0 0.0 0.00 0.00 0.00 30 1022.1
20260505225253 19 245 0.0 0.0 0.00 0.00 0.00 29 1022.1
20260505224748 19 247 0.0 0.0 0.00 0.00 0.00 30 1022.4
20260505224243 19 239 0.0 0.0 0.00 0.00 0.00 31 1022.4
20260505223738 19 204 0.0 0.0 0.00 0.00 0.00 31 1022.1
20260505223233 19 223 0.0 0.0 0.00 0.00 0.00 31 1022.1
20260505222726 19 255 0.0 0.0 0.00 0.00 0.00 31 1022.4
20260505222221 19 336 0.0 0.0 0.00 0.00 0.00 31 1022.4
20260505221717 19 229 0.0 0.0 0.00 0.00 0.00 30 1022.4
20260505221209 19 251 0.0 0.0 0.00 0.00 0.00 31 1022.4
20260505220706 19 238 0.0 0.0 0.00 0.00 0.00 31 1022.4
20260505220701 19 246 0.0 0.0 0.00 0.00 0.00 31 1022.4
20260505215653 19 359 0.0 0.0 0.00 0.00 0.00 28 1022.4
20260505215148 19 234 0.0 0.0 0.00 0.00 0.00 28 1022.4
20260505215140 19 178 0.0 0.0 0.00 0.00 0.00 31 1022.4
20260505214745 19 253 0.0 0.0 0.00 0.00 0.00 30 1022.4
20260505213632 19 288 0.0 0.0 0.00 0.00 0.00 29 1022.8
20260505213129 19 281 0.0 0.0 0.00 0.00 0.00 31 1022.4
20260505212622 19 277 0.0 0.0 0.00 0.00 0.00 31 1022.4
20260505212116 19 16 0.0 0.0 0.00 0.00 0.00 31 1022.4
20260505211612 18 240 0.0 0.0 0.00 0.00 0.00 29 1022.4
20260505211106 18 208 0.0 0.0 0.00 0.00 0.00 27 1022.8
20260505210601 18 228 0.0 0.0 0.00 0.00 0.00 30 1022.8
20260505210057 18 197 0.0 0.0 0.00 0.00 0.00 31 1022.8
20260505205550 18 44 0.0 0.0 0.00 0.00 0.00 31 1022.8
20260505205045 18 258 0.0 0.0 0.00 0.00 0.00 32 1022.8
20260505204542 18 279 0.0 0.0 0.00 0.00 0.00 32 1022.8
20260505204536 18 192 0.0 0.0 0.00 0.00 0.00 32 1022.8
20260505203528 18 241 0.0 0.0 0.00 0.00 0.00 33 1023.1
20260505203025 18 268 0.0 0.0 0.00 0.00 0.00 32 1022.8
20260505202518 18 288 0.0 0.0 0.00 0.00 0.00 32 1022.8
20260505202511 18 21 0.0 0.0 0.00 0.00 0.00 32 1023.1
20260505202116 18 261 0.0 0.0 0.00 0.00 0.00 31 1023.1
20260505201003 18 275 0.0 0.0 0.00 0.00 0.00 32 1023.1
20260505200458 18 297 0.0 1.6 0.00 0.00 0.00 33 1022.8
20260505195953 18 9 0.0 1.6 0.00 0.00 0.00 30 1022.8
20260505195448 18 281 0.0 0.0 0.00 0.00 0.00 32 1022.8
20260505195439 18 242 0.0 0.0 0.00 0.00 0.00 29 1023.1
20260505195044 18 258 0.0 0.0 0.00 0.00 0.00 30 1022.8
20260505193931 18 265 0.0 0.0 0.00 0.00 0.00 27 1023.1
20260505193425 18 243 0.0 0.0 0.00 0.00 0.00 27 1023.1
20260505192921 17 23 0.0 0.0 0.00 0.00 0.00 26 1022.8
20260505192416 17 221 0.0 0.0 0.00 0.00 0.00 30 1023.1
20260505192411 16 255 0.0 1.6 0.00 0.00 0.00 30 1022.8
20260505191405 16 232 0.0 1.6 0.00 0.00 0.00 29 1022.8
20260505190858 16 232 0.0 0.0 0.00 0.00 0.00 33 1022.8
20260505190353 16 284 0.0 0.0 0.00 0.00 0.00 31 1022.8
20260505185849 16 224 0.0 0.0 0.00 0.00 0.00 32 1022.8
20260505185343 16 6 0.0 0.0 0.00 0.00 0.00 33 1022.8
20260505184837 16 245 0.0 0.0 0.00 0.00 0.00 32 1023.1
20260505184332 16 325 0.0 0.0 0.00 0.00 0.00 33 1022.8
20260505183826 16 255 0.0 0.0 0.00 0.00 0.00 34 1023.1
20260505183324 16 249 0.0 0.0 0.00 0.00 0.00 33 1022.8
20260505183318 16 282 0.0 0.0 0.00 0.00 0.00 33 1022.8
20260505182311 15 223 0.0 0.0 0.00 0.00 0.00 33 1022.8
20260505181805 15 327 0.0 1.6 0.00 0.00 0.00 34 1022.4
20260505181301 14 188 0.0 1.6 0.00 0.00 0.00 34 1022.8
20260505180755 14 272 0.0 0.0 0.00 0.00 0.00 36 1022.8
20260505180249 13 242 0.0 0.0 0.00 0.00 0.00 38 1022.4
20260505175745 13 230 0.0 0.0 0.00 0.00 0.00 42 1022.8
20260505175239 13 322 0.0 0.0 0.00 0.00 0.00 47 1023.1
20260505174734 13 275 0.0 3.2 0.00 0.00 0.00 51 1022.4
20260505174229 13 233 0.0 3.2 0.00 0.00 0.00 59 1022.8
20260505173723 13 182 0.0 0.0 0.00 0.00 0.00 73 1022.4
20260505173220 13 304 0.0 0.0 0.00 0.00 0.00 74 1022.4
20260505173214 13 331 0.0 0.0 0.00 0.00 0.00 77 1022.4
20260505172207 13 226 0.0 0.0 0.00 0.00 0.00 80 1022.4
20260505171705 13 306 0.0 0.0 0.00 0.00 0.00 80 1022.4
20260505171659 13 269 0.0 0.0 0.00 0.00 0.00 81 1022.4
20260505170652 13 18 0.0 0.0 0.00 0.00 0.00 82 1022.4
20260505170146 13 214 0.0 0.0 0.00 0.00 0.00 82 1022.4
20260505165643 12 222 0.0 0.0 0.00 0.00 0.00 82 1022.4
20260505165636 12 280 0.0 0.0 0.00 0.00 0.00 83 1022.4
20260505164633 12 251 0.0 0.0 0.00 0.00 0.00 83 1022.4
20260505164627 12 356 0.0 0.0 0.00 0.00 0.00 83 1022.4
20260505163620 12 266 0.0 0.0 0.00 0.00 0.00 83 1022.4
20260505163115 12 243 0.0 0.0 0.00 0.00 0.00 83 1022.4
20260505162611 12 316 0.0 0.0 0.00 0.00 0.00 83 1022.4
20260505162104 12 215 0.0 0.0 0.00 0.00 0.00 84 1022.4
20260505161558 12 251 0.0 0.0 0.00 0.00 0.00 84 1022.4
20260505161054 12 226 0.0 0.0 0.00 0.00 0.00 84 1022.4
20260505160548 12 228 0.0 0.0 0.00 0.00 0.00 84 1022.4
20260505153010 12 206 0.0 0.0 0.00 0.00 0.00 84 1022.1
20260505152507 12 231 0.0 0.0 0.00 0.00 0.00 84 1022.1
20260505152000 12 191 0.0 0.0 0.00 0.00 0.00 84 1022.1
20260505151456 12 237 0.0 0.0 0.00 0.00 0.00 84 1021.8
20260505151451 12 275 0.0 0.0 0.00 0.00 0.00 84 1021.8
20260505150444 12 272 0.0 0.0 0.00 0.00 0.00 84 1021.8